Regional Weather Roundup
Issued by NWS

Home | Current Version | Previous Version | Graphics & Text | Print | Product List | Glossary On
Versions: 1 2 3 4 5 6 7 8 9 10 11 12 13 14 15 16 17 18 19 20 21 22 23 24 25 26 27 28 29 30 31 32 33 34 35 36 37 38 39 40 41 42 43 44 45 46 47 48 49 50
000
ASUS43 KMKX 221411
RWRWI

WISCONSIN REGIONAL WEATHER ROUNDUP
NATIONAL WEATHER SERVICE MILWAUKEE/SULLIVAN WI
900 AM CDT TUE JUL 22 2014

NOTE: "FAIR" INDICATES FEW OR NO CLOUDS BELOW 12,000 FEET WITH NO
SIGNIFICANT WEATHER AND/OR OBSTRUCTIONS TO VISIBILITY.

WIZ001-002-006>008-014>016-023>028-221500-
NORTHWEST WISCONSIN

CITY           SKY/WX    TMP DP  RH WIND       PRES   REMARKS
SUPERIOR ARPT  PTSUNNY   73  65  77 NW15G25   29.87R
ASHLAND        MOSUNNY   74  66  76 W17G25    29.84R
HAYWARD        CLOUDY    72  65  78 W8        29.91R
SIREN          PTSUNNY   73  65  77 NW10G21   29.92R
RICE LAKE      MOSUNNY   74  63  67 W18G25    29.93R
LADYSMITH      MOSUNNY   78  65  65 W16G25    29.90R HX  80
EAU CLAIRE     MOSUNNY   82  72  71 W21G29    29.88R HX  87
MENOMONIE      SUNNY     78  64  62 W15       29.91R HX  80
NEW RICHMOND   MOSUNNY   73  63  70 NW10G21   29.95R
OSCEOLA        PTSUNNY   73  65  77 NW10G18   29.96R
$$

WIZ003>005-009-010-017-018-221500-
NORTH CENTRAL WISCONSIN

CITY           SKY/WX    TMP DP  RH WIND       PRES   REMARKS
WOODRUFF       PTSUNNY   78  72  83 SW17G23   29.84R HX  80
RHINELANDER    CLOUDY    75  70  84 SW15G21   29.85F
EAGLE RIVER    CLOUDY    75  68  80 SW13G22   29.83S
LAND O LAKES   CLOUDY    76  71  85 SW9G20    29.82R
PHILLIPS       CLOUDY    77  72  85 W8G20     29.85R
TOMAHAWK       PTSUNNY   76  70  81 SW7       29.86F
MEDFORD        CLOUDY    76  72  87 SW13G18   29.88S
MERRILL        CLOUDY    76  71  86 SW7       29.87F
$$

WIZ029-030-035-036-043>047-221500-
CENTRAL WISCONSIN

CITY           SKY/WX    TMP DP  RH WIND       PRES   REMARKS
WAUSAU         CLOUDY    76  69  79 SW12      29.87S
MOSINEE        CLOUDY    73  72  94 SW12      29.90S
MARSHFIELD     CLOUDY    77  71  82 W13       29.89F
STEVENS POINT  CLOUDY    75  68  77 SW13      29.89F
WAUPACA        PTSUNNY   82  70  68 SW15      29.90R HX  85
WAUTOMA        MOSUNNY   81  70  69 SW14G20   29.91S HX  84
WISC RAPIDS    CLOUDY    78  70  76 SW10      29.91S HX  80
CAMP DOUGLAS   PTSUNNY   79  73  83 SW13G20   29.91S HX  82
$$

WIZ011>013-019>022-031-037>040-048>050-221500-
NORTHEAST WISCONSIN

CITY           SKY/WX    TMP DP  RH WIND       PRES   REMARKS
ANTIGO         CLOUDY    73  69  89 SW13      29.88F
STURGEON BAY   MOSUNNY   72  64  78 S14       29.88F
GREEN BAY      CLOUDY    77  69  76 S13G25    29.89S
MANITOWOC      PTSUNNY   72  66  81 S13       29.91F
APPLETON       PTSUNNY   75  66  73 SW14G21   29.90F
CLINTONVILLE   PTSUNNY   77  68  73 SW9G16    29.88S
OSHKOSH        SUNNY     79  69  71 SW17G26   29.90F HX  81
$$

WIZ032>034-041-042-053>061-221500-
SOUTHWEST WISCONSIN

CITY           SKY/WX    TMP DP  RH WIND       PRES   REMARKS
LA CROSSE      CLOUDY    80  72  76 VRB5      29.91R HX  84
SPARTA         CLOUDY    78  69  73 SW5       29.92R HX  80
VIROQUA        CLOUDY    77  71  81 SW12      29.95R
BOSCOBEL       MOSUNNY   82  70  66 SW9       29.92S HX  86
PRAIRIE DU CHI SUNNY     81  69  67 S5        29.91F HX  84
PLATTEVILLE    FAIR      78  71  78 SW13      29.97R HX  80
$$

WIZ056-057-062-063-064-067-068-221500-
SOUTH CENTRAL WISCONSIN

CITY           SKY/WX    TMP DP  RH WIND       PRES   REMARKS
BARABOO/DELLS  MOSUNNY   80  67  64 SW15      29.93R HX  82
LONE ROCK      MOSUNNY   83  71  67 SW7       29.93R HX  87
WATERTOWN      CLOUDY    77  68  72 S17G23    29.95F
MADISON        PTSUNNY   79  68  69 S15       29.93F HX  81
MIDDLETON      FAIR      81  67  63 SW12      29.94F HX  83
MONROE         PTSUNNY   75  68  78 S16       29.97S
JANESVILLE     MOSUNNY   79  66  65 S12       29.97S HX  81
$$

WIZ051-052-058>065-066-070>072-221500-
SOUTHEAST WISCONSIN

CITY           SKY/WX    TMP DP  RH WIND       PRES   REMARKS
MILWAUKEE      PTSUNNY   77  66  68 SW12      29.97S
WAUKESHA       MOSUNNY   73  64  73 S12       29.98F
MILWAUKEE/TIMM SUNNY     75  64  69 SW14      29.98S
RACINE         MOSUNNY   79  67  66 SW17      30.00S HX  81
BURLINGTON     MOSUNNY   73  66  78 S10       29.98F
KENOSHA        MOSUNNY   78  67  68 SW12G21   29.99F HX  80
FOND DU LAC    MOSUNNY   79  67  66 S15G30    29.91F HX  81
SHEBOYGAN      PTSUNNY   78  68  71 S15       29.93F HX  80
WEST BEND      MOSUNNY   75  63  64 S14       29.95F
JUNEAU         MOSUNNY   76  53  43 S14G21    29.95F
$$

LSZ147-162-221500-
LAKE SUPERIOR

STATION/POSITION TIME  TEMP    WIND        PRES    WAVE
                       AIR SEA DIR/SP/G            HT/PER
                 (UTC) (F)     (DEG/KT/KT) (MB)    (FT/S)
W MID LAKE BUOY  1350   50 39  250/ 14/ 14 1006.2R   2/ 4
PORT WING        1320   70     250/ 14/ 21 1009.5R
SAXON HARBOR     1300          250/  7/ 23 1008.1R
$$

LMZ867-665-643>646-221500-
LAKE MICHIGAN

STATION/POSITION TIME  TEMP    WIND        PRES    WAVE
                       AIR SEA DIR/SP/G            HT/PER
                 (UTC) (F)     (DEG/KT/KT) (MB)    (FT/S)
N MID LAKE BUOY  1350   63 57  190/ 21/ 25 1010.6F   4/ 5
NORTHPORT PIER   1320   69     160/ 12/ 22 1011.2F
KEWAUNEE LAKESHO 1300   55     180/ 13/ 14 1013.8F
SHEBOYGAN LAKESH 1400   67     180/ 19/ 21 1013.4F
PORT WASHINGTON  1340   61     190/  7/ 11 1014.9F
ATWATER BUOY     1400   59     150/ 10     1015.2F
MILWAUKEE LAKESH 1300   73     210/ 11/ 14   N/A
S MID LAKE BUOY  1350   70 68  180/ 17/ 21 1015.3F   2/ 3
KENOSHA   LAKESH 1400   76     230/  8/ 15   N/A
$$

TC  - TEMPERATURE IN CELSIUS
VSB - VISIBILITY IN STATUTE MILES
WCI - WIND CHILL INDEX
HX  - HEAT INDEX



USA.gov is the U.S. government's official web portal to all federal, state and local government web resources and services.